Regional Weather Roundup
Issued by NWS Upton, NY

Current Version | Previous Version | Graphics & Text | Print | Product List | Glossary Off
Versions: 1 2 3 4 5 6 7 8 9 10 11 12 13 14 15 16 17 18 19 20 21 22 23 24 25 26 27 28 29 30 31 32 33 34 35 36 37 38 39 40 41 42 43 44 45 46 47 48 49 50

000
ASUS41 KOKX 192105
RWROKX

REGIONAL WEATHER ROUNDUP
NATIONAL WEATHER SERVICE NEW YORK NY
400 PM EST FRI DEC 19 2014

NOTE: "FAIR" INDICATES FEW OR NO CLOUDS BELOW 12,000 FEET WITH NO
SIGNIFICANT WEATHER AND/OR OBSTRUCTIONS TO VISIBILITY.

NYZ071-072-176-178-NJZ106-104-192200-
NEW YORK CITY METRO AREA


CITY           SKY/WX    TMP DP  RH WIND       PRES   REMARKS
CENTRAL PARK   CLEAR     35  19  52 MISG      30.09R
LAGUARDIA APRT PTCLDY    36  22  56 NW15      30.07R WCI  27
KENNEDY INTL   PTCLDY    38  19  46 NW15      30.07R WCI  29
NEWARK/LIBERTY MOCLDY    35  22  58 NW17G24   30.09R WCI  25
BRNX BOT. GARD   N/A    N/A N/A N/A NW15      30.09R
TETERBORO      CLEAR     35  20  54 W15G22    30.07R WCI  25
$$

NYZ177-179-078>081-192200-
LONG ISLAND NEW YORK

CITY           SKY/WX    TMP DP  RH WIND       PRES   REMARKS
FARMINGDALE    CLEAR     38  21  50 NW10G18   30.05R WCI  31
ISLIP          MOCLDY    37  22  54 NW12      30.02R WCI  29
SHIRLEY        CLOUDY    38  23  55 NW10      30.04R WCI  31
WESTHAMPTON    MOCLDY    37  22  54 NW9       30.04R WCI  30
MONTAUK POINT    N/A     38  23  55 N9        30.02R WCI  31
$$

NYZ052-065-067-192200-
HUDSON VALLEY

CITY           SKY/WX    TMP DP  RH WIND       PRES   REMARKS
WHITE PLAINS   MOCLDY    34  20  56 NW12G18   30.03R WCI  25
NEWBURGH       MOCLDY    32  23  69 W17       30.07R WCI  21
MONTGOMERY     CLOUDY    33  20  58 NW15      30.06R WCI  23
POUGHKEEPSIE   CLOUDY    35  21  56 N8        30.07R WCI  29
ALBANY         CLOUDY    29  20  69 W15       30.09R WCI  18
$$

NJZ001-105-106-008-010-013-015-019>022-104-192200-
NEW JERSEY

CITY           SKY/WX    TMP DP  RH WIND       PRES   REMARKS
NEWARK/LIBERTY MOCLDY    35  22  58 NW17G24   30.09R WCI  25
TETERBORO      CLEAR     35  20  54 W15G22    30.07R WCI  25
CALDWELL       CLOUDY    33  20  58 NW13G21   30.09R WCI  24
MORRISTOWN     MOCLDY    34  23  64 N13         N/A  WCI  25
SOMERVILLE     CLOUDY    36  21  54 NW10      30.07R WCI  28
SUSSEX         CLOUDY    31  21  66 NW9       30.08R WCI  23
ANDOVER          N/A     30  21  69 VRB6      30.08R WCI  24
TRENTON        CLEAR     37  20  50 N13       30.07R WCI  29
MILLVILLE      CLEAR     41  23  48 W10       30.10R
ATLANTIC CITY  CLEAR     40  24  53 NW12      30.07R WCI  33
WRIGHTSTOWN    CLEAR     38  21  50 NW13      30.05R WCI  30
TOMS RIVER     CLEAR     37  23  56 NW9       30.06S WCI  31
BELMAR         CLEAR     37  19  48 NW17      30.05S WCI  28
$$

PAZ047>061-062-071-192200-
EASTERN PENNSYLVANIA

CITY           SKY/WX    TMP DP  RH WIND       PRES   REMARKS
PHILADELPHIA   PTCLDY    41  21  44 NW16G23   30.10R
ALLENTOWN      CLEAR     35  21  56 N12       30.09S WCI  27
SCRANTON       CLOUDY    30  18  60 NW13G21   30.10S WCI  20
$$

CTZ002-004>006-009-010-012-RIZ004-006-007-MAZ004-011-015-192200-
SOUTHERN NEW ENGLAND
 IN CT

CITY           SKY/WX    TMP DP  RH WIND       PRES   REMARKS
BRADLEY INTL   CLOUDY    33  20  58 NW14      30.03R WCI  23
HARTFORD       CLOUDY    34  20  56 NW9G20    30.05R WCI  27
DANBURY        CLOUDY    35  19  52 NW10      30.04R WCI  27
WTRBRY/OXFORD  MOCLDY    34  18  51 N17G24    30.03R WCI  23
BRIDGEPORT     CLOUDY    38  22  52 NW12      30.04R WCI  30
MERIDEN        CLOUDY    33  20  58 NW13G21   30.06R WCI  24
NEW HAVEN      MOCLDY    38  21  50 N15G21    30.04R WCI  29
CHESTER        CLOUDY    34  21  60 NW8       30.02R WCI  27
GROTON         CLOUDY    35  22  58 N13       30.02R WCI  26
WILLIMANTIC    CLOUDY    34  21  59 NW6       30.02R WCI  29

 IN RI

CITY           SKY/WX    TMP DP  RH WIND       PRES   REMARKS
PROVIDENCE     CLOUDY    35  22  58 N10G18    30.01R WCI  27
BLOCK ISLAND   CLOUDY    36  21  55 N8        30.00R WCI  29
WESTERLY       CLOUDY    35  22  58 VRB7      30.02R WCI  29

 IN MA

CITY           SKY/WX    TMP DP  RH WIND       PRES   REMARKS
BOSTON         MOCLDY    35  22  58 NW10      30.00R WCI  27
WORCESTER      CLOUDY    29  20  69 NW14      29.97R WCI  18
WESTFIELD      CLOUDY    33  20  58 NW12      30.03R WCI  24
PROVINCETOWN   CLOUDY    36  25  64 NW10      29.98R WCI  28
NANTUCKET      CLOUDY    37  24  59 NW13      29.98R WCI  29
$$

ANZ330-335-338-340-345-350-353-355-192200-
COASTAL MARINE OBSERVATIONS


STATION/POSITION TIME  SKY/WX   TEMP    WIND        PRES    VSBY  WAVE
                                AIR SEA DIR/SP/G                  HT/PER
                 (UTC)          (F)     (DEG/KT/KT) (MB)    (MI)  (FT/S)
NY HARB ENTRANCE 2100            38 47  310/ 19/ 23 1017.8          2/ 4
4S FIRE IS       2100               47                N/A           2/ 3
20S FIRE ISLAND  2000            41 49              1017.2          3/ 5
23SW MTP         2100                                 N/A           3/ 5
HUDSON CANYON    2100            39 55  310/ 17/ 23 1016.4          5/ 5
EXECUTION ROCKS  2100            38 42  320/ 14/ 17   N/A
WESTERN LI SOUND 2100            38     300/ 16/ 21   N/A           1/ 2
CENTRAL LI SOUND 2000            36 45  330/ 16/ 21   N/A           2/ 3
EASTERN LI SOUND NOT AVBL
ROBBINS REEF     2100            35     340/ 14/ 18 1017.3
$$


>>>>>>>>>>>>>>>>>>>>>>>>>>>> KEY <<<<<<<<<<<<<<<<<<<<<<<<<<<
>                                                          <
>     SKY/WX - SKY CONDITION/PRESENT WEATHER               <
>     TMP    - TEMPERATURE IN FAHRENHEIT                   <
>     DP     - DEWPOINT IN FAHRENHEIT                      <
>     RH     - RELATIVE HUMIDITY IN PERCENT                <
>     WIND   - DIRECTION AND SPEED IN MPH                  <
>     PRES   - MEAN SEA LEVEL PRESSURE IN INCHES OF HG     <
>     WCI    - WIND CHILL INDEX                            <
>     VSB    - VISIBILITY IN MILES                         <
>     HX     - HEAT INDEX                                  <
>     TC     - TEMPERATURE IN CELSIUS                      <
>     VRB    - VARIABLE WIND DIRECTION                     <
>                                                          <
>>>>>>>>>>>>>>>>>>>>>>>>>>>> KEY <<<<<<<<<<<<<<<<<<<<<<<<<<<





USA.gov is the U.S. government's official web portal to all federal, state and local government web resources and services.